Weather History for KGEZ - May, 2014

Change the Weather History Date:

Sunday, May 4, 2014

  Actual Average Record
Temperature  
Mean Temperature 62 °F 59 °F  
Max Temperature 73 °F 70 °F 84 °F (2001)
Min Temperature 51 °F 48 °F 33 °F (2005)
Degree Days  
Heating Degree Days 3 7  
Month to date heating degree days 36 29  
Since 1 July heating degree days 5635 5289  
Cooling Degree Days 0 1  
Month to date cooling degree days 0 4  
Year to date cooling degree days 10 17  
Growing Degree Days 13 (Base 50)    
Moisture  
Dew Point 37 °F    
Average Humidity 45    
Maximum Humidity 61    
Minimum Humidity 29    
Precipitation  
Precipitation 0.00 in 0.20 in 1.17 in (2003)
Month to date precipitation T 0.78  
Year to date precipitation 11.34 13.28  
Sea Level Pressure  
Sea Level Pressure 29.97 in    
Wind  
Wind Speed 10 mph (NW)    
Max Wind Speed 17 mph    
Max Gust Speed 22 mph    
Visibility 10 miles    
Events      
T = Trace of Precipitation, MM = Missing Value Source: NWS Daily Summary

Daily Weather History Graph

Daily Weather History Graph

Search for Another Location

Airport or City:

Trip Planner

Search our weather history database for the weather conditions in past years. The results will help you decide how hot, cold, wet, or windy it might be!

Date:

Astronomy

May. 04, 2014 Rise Set
Actual Time 6:40 AM EDT 8:40 PM EDT
Civil Twilight 6:11 AM EDT 9:09 PM EDT
Nautical Twilight 5:35 AM EDT 9:45 PM EDT
Astronomical Twilight 4:56 AM EDT 10:24 PM EDT
Moon 11:04 AM EDT (5/4) 12:44 AM EDT (5/4)
Length of Visible Light 14h 58m
Length of Day
13h 59m
Waxing Crescent, 27% of the Moon is Illuminated
May 4
Waxing Crescent
May 6
First Quarter
May 14
Full
May 21
Last Quarter
May 28
New

Hourly Weather History & Observations

Time (EDT) Temp. Dew Point Humidity Pressure Visibility Wind Dir Wind Speed Gust Speed Precip Events Conditions
12:53 AM 55.0 °F 37.9 °F 53% 29.92 in 10.0 mi SW 8.1 mph - N/A   Clear
1:53 AM 55.9 °F 39.0 °F 53% 29.92 in 10.0 mi SW 9.2 mph - N/A   Clear
2:53 AM 54.0 °F 39.0 °F 57% 29.91 in 10.0 mi SW 5.8 mph - N/A   Clear
3:53 AM 54.0 °F 39.0 °F 57% 29.91 in 10.0 mi WSW 6.9 mph - N/A   Clear
4:53 AM 55.0 °F 39.9 °F 57% 29.92 in 10.0 mi WSW 6.9 mph - N/A   Mostly Cloudy
5:53 AM 55.9 °F 41.0 °F 57% 29.93 in 10.0 mi West 6.9 mph - N/A   Overcast
6:53 AM 55.9 °F 42.1 °F 60% 29.94 in 10.0 mi WSW 6.9 mph - N/A   Overcast
7:53 AM 57.0 °F 43.0 °F 59% 29.96 in 10.0 mi West 5.8 mph - N/A   Overcast
8:53 AM 60.1 °F 44.1 °F 55% 29.98 in 10.0 mi WNW 4.6 mph - N/A   Overcast
9:53 AM 64.9 °F 37.9 °F 37% 29.98 in 10.0 mi NW 11.5 mph - N/A   Clear
10:53 AM 66.9 °F 37.0 °F 33% 29.99 in 10.0 mi NW 11.5 mph - N/A   Clear
11:53 AM 68.0 °F 37.9 °F 33% 29.99 in 10.0 mi NW 12.7 mph - N/A   Clear
12:53 PM 70.0 °F 37.9 °F 31% 30.00 in 10.0 mi WNW 16.1 mph - N/A   Clear
1:53 PM 70.0 °F 39.0 °F 32% 29.99 in 10.0 mi NNW 10.4 mph - N/A   Clear
2:53 PM 71.1 °F 39.0 °F 31% 29.99 in 10.0 mi West 8.1 mph 19.6 mph N/A   Clear
3:53 PM 72.0 °F 37.9 °F 29% 29.97 in 10.0 mi NNW 6.9 mph - N/A   Clear
4:53 PM 71.1 °F 39.0 °F 31% 29.97 in 10.0 mi North 10.4 mph - N/A   Clear
5:53 PM 68.0 °F 37.0 °F 32% 29.97 in 10.0 mi North 13.8 mph - N/A   Clear
6:53 PM 66.0 °F 35.1 °F 32% 29.96 in 10.0 mi NNE 10.4 mph - N/A   Clear
7:53 PM 62.1 °F 30.9 °F 31% 29.99 in 10.0 mi NNE 12.7 mph - N/A   Clear
8:53 PM 57.9 °F 30.0 °F 35% 30.01 in 10.0 mi NNE 11.5 mph - N/A   Clear
9:53 PM 55.0 °F 32.0 °F 42% 30.02 in 10.0 mi NNE 9.2 mph - N/A   Clear
10:53 PM 54.0 °F 27.0 °F 35% 30.02 in 10.0 mi NE 11.5 mph - N/A   Clear
11:53 PM 53.1 °F 26.1 °F 35% 30.01 in 10.0 mi NE 10.4 mph - N/A   Clear